Location: Dąbrówka
(52.2799°N, 15.8070°E)
Time: 22:55:03
(UTC+02:00)

ISS - Pass Details

Date: 26 January 2019
Orbit: 411 x 421 km, 51.6° (Epoch: 21 October)

Event Time Altitude Azimuth Distance (km) Brightness Sun altitude
Rises 17:30:59 0° 220° (SW) 2,405 1.2 -9.0°
Reaches altitude 10° 17:33:16 10° 208° (SSW) 1,543 -0.2 -9.3°
Maximum altitude 17:36:15 27° 149° (SSE) 881 -2.3 -9.8°
Enters shadow 17:38:43 13° 95° (E) 1,376 -1.7 -10.1°
